Temperature
18 17 17 17 17 17 17 17 17 17 17 17 17 17 17 17 17 17 16 16 16 16 16 16 16 16 16 16 16 15 15 15 15 15 15 15 15 15 15 15 15 14 14
19 18 17 17 17 17 17 17 17 17 17 17 17 17 17 17 17 16 16 16 16 16 16 15 15 15 15 16 15 15 15 15 15 15 15 15 15 15 15 14 14 14 14
18 18 17 17 17 17 17 17 17 17 17 17 17 17 17 17 16 16 16 16 16 15 15 15 15 15 15 15 15 15 15 15 15 15 15 14 14 14 14 14 14 14 14
18 18 17 17 17 17 17 17 17 17 17 17 17 17 17 16 16 16 16 15 15 15 15 15 15 15 15 15 15 15 15 15 15 14 14 14 14 14 14 14 14 14 14
18 17 17 17 17 17 17 17 17 17 17 17 17 16 16 16 16 16 15 15 15 15 15 15 15 15 15 15 15 15 15 14 14 14 14 14 14 14 14 14 14 14 14
18 17 17 17 16 16 16 17 17 17 17 17 16 16 16 16 16 15 15 15 15 15 15 15 15 15 15 15 14 14 14 14 14 14 14 14 14 14 14 14 14 13 13
17 17 17 16 16 16 16 16 16 16 16 16 16 16 16 16 15 15 15 15 15 15 15 14 14 14 14 14 14 14 14 14 14 14 14 14 14 13 13 13 13 13 13
17 17 16 16 16 16 16 16 16 16 16 16 16 16 16 16 15 15 15 15 15 15 15 14 14 14 14 14 14 14 14 14 14 14 14 14 13 13 13 13 13 13 13
17 16 16 16 16 16 16 16 16 16 16 16 16 16 15 15 15 15 15 15 15 15 14 14 14 14 14 14 14 14 14 14 14 14 13 13 13 13 13 13 13 13 13
16 16 16 16 16 16 16 16 16 16 16 16 15 15 15 15 15 15 15 15 14 14 14 14 14 14 14 14 14 14 13 13 13 13 13 13 13 13 13 13 13 13 13
16 16 16 15 15 15 15 15 15 15 15 15 15 15 15 15 15 15 14 14 14 14 14 14 14 14 14 13 13 13 13 13 13 13 13 13 13 13 13 13 13 13 12
16 16 15 15 15 15 15 15 15 15 15 15 15 15 15 15 15 14 14 14 14 14 14 14 14 13 13 13 13 13 13 13 13 13 13 13 13 12 12 12 12 12 12
16 16 16 15 15 15 15 15 15 15 15 15 15 15 14 14 14 14 14 14 14 14 14 13 13 13 13 13 13 13 13 13 13 13 12 12 12 12 12 12 12 12 12
16 16 16 15 15 15 15 15 15 15 15 14 14 14 14 14 14 14 14 14 14 14 13 13 13 13 13 13 13 13 13 13 12 12 12 12 12 12 12 12 11 11 11
16 16 16 15 15 15 15 15 15 15 15 14 14 14 14 14 14 14 14 13 13 13 13 13 13 13 13 13 13 13 13 12 12 12 12 12 12 12 11 11 11 11 11
16 16 15 15 15 15 15 15 15 15 15 14 14 14 14 14 14 14 13 13 13 13 13 13 13 13 13 12 12 12 12 12 12 12 11 11 11 11 11 11 11 11 10
16 16 15 15 15 15 15 14 14 14 14 14 14 14 14 14 13 13 13 13 13 13 13 12 12 12 12 12 12 12 12 12 12 11 11 11 11 11 11 11 10 10 10
15 15 15 15 15 15 14 14 14 14 14 14 14 14 14 13 13 13 13 13 13 12 12 12 12 12 12 12 12 12 11 11 11 11 11 11 10 10 10 10 10 10 10
15 15 15 15 15 15 15 14 14 14 14 14 14 14 13 13 13 13 13 13 12 12 12 12 12 12 11 11 11 11 11 11 11 11 10 10 10 10 10 10 9 9 9
15 15 15 15 15 15 14 14 14 14 13 13 13 13 13 13 13 13 12 12 12 12 12 11 11 11 11 11 11 11 11 11 10 10 10 10 10 10 9 9 9 9 9
14 15 15 15 14 14 14 14 14 13 13 13 13 13 13 13 12 12 12 12 12 12 11 11 11 11 11 10 10 10 10 10 10 10 10 10 9 9 9 9 9 9 8
14 14 14 14 14 14 14 14 14 13 13 13 13 13 12 12 12 12 12 12 12 11 11 11 11 10 10 10 10 9 9 9 9 9 9 9 9 9 8 8 8 8 8
14 14 14 14 14 14 14 13 13 13 13 12 12 12 12 12 12 12 12 11 11 11 11 11 10 10 10 10 9 9 9 8 8 8 8 8 8 8 8 8 8 8 8
14 14 14 14 14 13 13 13 13 13 13 13 12 12 12 12 11 11 11 11 11 11 11 10 10 10 10 9 9 9 8 8 7 7 7 8 7 7 7 7 7 7 7
14 14 13 13 13 13 13 13 13 12 12 12 12 12 12 11 11 11 11 11 11 10 10 10 10 10 9 9 9 8 8 8 7 7 6 7 7 7 7 7 7 7 7
13 13 13 13 13 12 12 12 12 12 12 12 12 11 11 11 11 11 11 10 10 10 10 10 9 9 9 9 8 8 8 7 7 7 6 6 6 6 6 6 6 6 6
Wind_Speed
5 7 13 15 15 15 15 15 16 16 16 16 16 15 15 14 14 14 13 13 13 13 13 13 13 13 13 13 13 14 14 13 13 12 12 12 12 12 11 11 10 9 10
8 11 14 16 16 16 15 16 16 16 16 16 15 15 14 14 13 13 13 13 12 13 13 13 13 13 13 13 13 13 13 12 12 12 11 10 10 11 10 10 9 9 10
10 12 15 16 16 16 16 16 16 16 15 15 15 14 14 13 12 12 12 12 12 12 12 12 12 13 13 13 13 13 12 11 11 11 11 9 9 9 10 9 9 9 9
11 12 14 17 16 16 16 16 16 15 15 15 14 14 13 13 13 12 12 12 12 12 11 12 12 12 12 12 12 12 11 11 11 10 9 8 8 9 9 9 8 8 8
10 11 14 17 16 16 16 16 15 15 15 14 14 13 13 12 12 12 12 12 12 11 11 11 11 11 10 10 11 11 11 10 10 9 8 7 7 8 8 9 9 7 7
9 11 14 17 16 16 16 16 15 15 14 13 13 12 12 12 12 12 11 11 11 11 11 11 11 10 9 10 10 10 10 10 9 8 7 7 6 7 7 7 8 8 7
9 10 13 16 16 16 15 15 15 14 13 13 12 11 11 11 11 11 11 11 11 10 10 10 9 9 10 10 10 10 10 9 9 8 7 6 6 6 7 7 7 6 7
9 9 12 15 15 15 15 14 14 13 13 12 11 11 10 10 10 10 10 10 10 10 10 9 9 9 9 9 9 10 9 9 8 6 5 4 4 5 6 6 5 5 6
8 8 8 11 13 14 14 14 13 13 12 12 11 10 10 10 10 9 9 8 8 8 8 8 8 9 9 9 9 9 9 8 7 5 4 3 4 4 5 5 5 5 5
6 6 7 9 10 11 11 13 13 12 12 11 11 10 10 9 9 8 8 8 7 7 7 7 8 8 9 9 9 8 8 7 6 5 4 4 4 4 4 5 5 5 5
6 5 6 7 8 9 10 10 11 11 11 11 10 10 9 8 7 7 7 7 6 6 6 7 7 8 8 8 8 8 7 6 5 4 4 4 4 4 4 4 4 4 4
9 7 6 6 6 7 8 8 8 8 9 9 9 9 9 8 7 6 6 6 6 6 6 6 7 7 7 7 7 7 7 6 5 4 4 5 5 5 5 5 5 5 5
9 7 6 6 6 6 5 6 6 7 7 7 8 9 9 8 6 6 5 5 5 6 5 5 6 6 6 6 5 6 5 5 5 4 5 6 6 6 6 6 5 5 5
9 8 7 7 6 6 6 5 5 5 5 5 7 8 8 5 4 4 4 4 5 4 5 5 5 5 6 5 5 5 5 4 4 4 5 7 7 7 7 7 7 6 6
8 8 7 7 7 6 5 4 5 4 5 6 6 7 8 5 3 4 3 4 4 4 4 4 4 4 4 4 5 4 4 4 4 4 4 6 7 7 7 7 8 8 7
8 8 7 7 7 7 6 5 4 5 6 6 6 6 8 7 5 4 3 3 3 3 4 4 4 3 3 3 3 4 3 3 3 4 4 5 6 7 7 8 8 9 8
8 7 7 7 7 6 6 6 5 5 6 5 5 7 7 7 6 5 3 2 2 4 4 4 4 4 3 3 3 3 3 3 3 3 4 5 5 7 8 8 9 9 9
7 7 7 7 7 7 6 5 4 5 5 5 6 6 7 7 7 6 3 2 4 4 4 3 2 2 2 2 2 2 3 3 3 3 3 4 5 6 7 8 9 10 10
8 8 7 7 7 7 6 5 4 5 4 4 5 6 6 7 8 6 3 3 5 4 3 2 2 2 2 1 1 2 2 2 2 3 3 3 4 5 6 7 9 10 11
6 6 6 6 6 6 5 4 3 3 3 3 4 5 6 7 7 6 4 4 5 3 2 2 3 2 2 1 2 2 2 2 2 2 2 2 3 4 5 6 7 8 10
5 6 7 7 6 6 5 5 4 4 3 2 2 4 6 7 7 6 4 3 4 3 3 3 3 3 2 1 2 2 3 2 2 2 2 2 3 4 5 5 5 6 8
7 7 7 7 7 7 6 5 4 4 3 2 2 3 5 6 6 6 5 4 4 3 3 3 3 2 1 2 2 1 2 3 3 2 2 1 2 3 3 5 5 6 7
7 8 8 8 7 7 6 5 4 3 3 2 2 2 2 5 6 6 6 5 4 4 4 4 4 4 3 1 1 2 2 2 2 3 2 2 2 2 3 4 4 5 6
7 6 6 7 7 7 7 7 7 5 4 4 3 3 2 3 4 5 5 5 5 4 4 4 4 3 4 2 1 1 1 2 1 2 2 2 3 3 3 3 4 5 6
6 6 5 6 6 6 6 8 7 5 4 3 2 3 2 2 3 4 5 5 4 4 4 4 3 3 3 3 2 1 1 1 1 1 3 3 3 2 2 2 3 4 6
4 4 5 6 5 5 6 6 7 7 6 5 4 4 3 2 2 2 4 4 4 4 4 4 4 4 3 3 3 2 2 2 2 2 3 4 4 3 3 2 2 3 5
Wind_Direction
177 174 158 148 144 138 130 124 120 117 114 112 110 109 107 105 103 100 98 96 93 90 91 91 90 89 87 86 87 86 84 82 80 77 74 75 77 78 81 78 75 72 73
153 160 155 148 144 139 133 127 124 120 118 116 113 110 108 106 104 103 101 98 95 91 88 88 90 90 88 86 86 85 82 80 78 74 70 68 73 76 81 81 77 75 72
143 152 151 146 143 139 135 129 127 123 121 119 116 113 111 108 107 107 105 101 97 93 88 87 86 87 88 88 86 84 81 80 79 74 67 60 64 74 77 80 79 75 73
142 146 147 145 143 140 137 133 130 127 123 120 118 115 113 111 109 106 106 103 98 93 89 87 86 85 86 86 85 83 80 78 78 74 64 55 55 69 73 71 76 73 71
134 141 147 145 145 141 139 137 132 129 125 123 120 117 115 113 110 107 105 103 100 95 92 90 88 87 85 85 85 83 81 77 77 72 63 54 50 63 70 69 67 68 66
132 137 147 147 146 143 141 139 135 131 128 125 123 120 118 116 114 112 107 103 101 99 96 93 89 88 87 88 86 84 82 80 78 74 63 52 51 61 66 68 66 60 56
136 137 148 147 146 144 142 140 137 133 131 129 126 124 122 120 116 113 110 106 104 102 98 96 92 88 86 88 87 84 81 81 82 74 62 50 50 60 65 69 67 61 55
138 134 146 147 144 145 144 141 139 137 135 133 131 128 124 121 118 114 112 110 107 103 99 95 92 90 89 88 85 82 80 80 80 69 56 44 44 55 60 60 58 56 53
128 127 133 140 142 144 144 143 142 140 138 136 133 130 126 122 120 118 114 111 109 107 104 98 93 88 89 86 84 82 78 76 75 62 47 31 31 46 52 47 46 45 46
125 127 126 127 132 135 140 144 144 143 141 138 135 131 127 124 120 118 115 113 112 109 106 100 95 89 83 79 78 76 73 68 64 50 31 12 16 33 43 41 40 40 42
144 138 133 128 129 132 136 142 143 143 143 140 136 131 125 118 115 115 114 115 114 115 110 100 94 89 79 71 69 70 66 57 51 36 22 9 8 18 34 31 27 28 25
170 164 150 143 136 134 139 136 135 137 138 136 133 131 124 118 116 115 114 115 110 106 104 97 92 86 77 67 61 64 61 52 47 29 17 15 12 17 26 22 21 19 13
173 169 164 156 145 140 134 133 131 131 132 133 136 135 129 119 112 108 106 103 101 100 91 85 80 76 76 72 63 60 59 57 48 34 18 16 12 15 18 16 10 7 2
170 176 169 162 154 150 145 140 138 132 133 134 141 144 136 122 113 109 104 104 100 99 91 85 80 76 73 68 68 63 56 52 42 32 21 20 18 17 15 14 9 1 358
174 179 176 170 166 158 149 150 145 143 144 147 146 151 149 137 132 121 111 109 104 103 101 91 84 77 68 57 56 57 47 38 33 31 23 26 25 21 16 11 8 3 358
182 182 176 173 173 162 163 162 157 151 149 145 148 156 157 148 140 130 116 110 109 116 118 111 99 88 76 67 52 41 32 29 32 32 31 30 29 24 16 10 7 5 4
182 180 179 178 171 167 168 166 156 153 150 147 152 158 159 156 150 141 132 125 124 127 117 103 91 82 74 65 46 33 30 26 32 33 35 33 28 25 18 12 7 5 3
174 174 178 175 171 172 170 164 152 151 149 150 152 154 159 161 156 142 138 144 136 126 115 111 107 92 65 54 39 18 23 27 32 34 41 34 29 25 19 14 8 3 360
177 173 172 170 170 172 166 156 144 139 142 145 148 150 157 158 157 144 139 138 134 120 115 124 101 110 97 66 50 27 17 20 19 39 45 34 29 26 19 11 5 1 355
171 166 165 163 164 160 154 141 133 128 142 138 147 154 155 155 156 146 138 136 134 131 133 128 116 93 101 96 64 35 6 2 29 38 31 30 24 16 10 2 358 352 350
161 162 168 166 169 162 162 163 163 175 178 173 164 157 157 156 156 150 151 146 144 155 159 149 131 105 74 71 75 22 2 6 20 12 19 31 22 7 9 1 353 350 345
177 175 175 177 177 177 174 171 169 164 161 167 155 144 160 160 160 161 160 164 160 157 148 147 138 127 91 67 109 95 357 348 356 351 358 7 357 6 6 353 351 345 339
186 185 184 182 180 175 164 145 130 109 97 130 160 179 175 163 163 159 160 159 160 164 168 168 156 149 156 98 87 136 141 244 310 327 337 339 336 343 341 344 341 334 332
196 188 179 177 174 170 164 162 160 165 177 190 184 183 169 151 156 159 157 158 162 166 172 178 168 164 155 161 116 77 146 161 178 309 316 326 330 327 321 332 334 330 329
182 175 172 167 168 168 167 168 167 166 173 165 147 147 155 159 151 153 156 155 165 172 176 174 170 165 165 168 168 163 132 97 167 202 282 303 319 306 305 308 319 325 325
162 159 159 161 169 169 167 169 170 168 164 156 164 171 175 176 178 162 152 157 166 171 178 180 174 168 173 169 169 170 173 179 202 209 259 289 299 301 305 298 299 311 317
Height
1505 1507 1510 1513 1515 1518 1520 1521 1523 1524 1526 1527 1528 1529 1530 1531 1531 1532 1533 1533 1534 1535 1535 1535 1536 1536 1537 1537 1538 1538 1539 1539 1540 1540 1540 1541 1541 1541 1541 1541 1542 1542 1542
1504 1507 1510 1513 1515 1518 1520 1522 1523 1525 1526 1527 1529 1530 1531 1531 1532 1533 1534 1534 1535 1535 1536 1536 1537 1537 1538 1538 1539 1539 1540 1540 1541 1541 1541 1542 1542 1542 1542 1542 1542 1542 1543
1504 1507 1510 1513 1516 1518 1520 1522 1524 1525 1527 1528 1529 1530 1531 1532 1533 1534 1534 1535 1535 1536 1537 1537 1538 1538 1539 1539 1540 1540 1541 1541 1542 1542 1542 1542 1542 1542 1543 1543 1543 1543 1543
1504 1507 1510 1513 1516 1518 1520 1522 1524 1526 1527 1528 1529 1531 1531 1532 1533 1534 1535 1535 1536 1537 1537 1538 1538 1539 1539 1540 1540 1541 1541 1542 1542 1543 1543 1543 1543 1543 1543 1543 1543 1543 1543
1504 1507 1510 1513 1516 1518 1521 1523 1524 1526 1527 1529 1530 1531 1532 1533 1534 1535 1535 1536 1537 1537 1538 1538 1539 1540 1540 1540 1541 1541 1542 1542 1543 1543 1543 1544 1544 1544 1544 1544 1544 1544 1544
1504 1507 1511 1513 1516 1519 1521 1523 1525 1526 1528 1529 1530 1531 1532 1533 1534 1535 1536 1537 1537 1538 1538 1539 1540 1540 1541 1541 1542 1542 1543 1543 1543 1544 1544 1544 1544 1544 1544 1544 1544 1544 1544
1505 1508 1511 1514 1516 1519 1521 1523 1525 1526 1528 1529 1530 1532 1533 1534 1535 1535 1536 1537 1538 1538 1539 1540 1540 1541 1541 1542 1542 1542 1543 1543 1544 1544 1544 1544 1544 1544 1544 1544 1544 1544 1543
1505 1508 1511 1514 1516 1519 1521 1523 1525 1526 1528 1529 1531 1532 1533 1534 1535 1536 1536 1537 1538 1539 1539 1540 1541 1541 1542 1542 1542 1543 1543 1544 1544 1544 1544 1544 1544 1544 1544 1544 1544 1543 1543
1506 1508 1511 1514 1516 1519 1521 1523 1525 1526 1528 1529 1531 1532 1533 1534 1535 1536 1537 1537 1538 1539 1539 1540 1541 1541 1542 1542 1542 1543 1543 1544 1544 1544 1544 1544 1544 1544 1544 1543 1543 1543 1542
1506 1508 1511 1513 1516 1518 1520 1522 1524 1526 1528 1529 1530 1532 1533 1534 1535 1536 1537 1537 1538 1539 1540 1540 1541 1541 1542 1542 1542 1543 1543 1544 1544 1544 1544 1544 1544 1544 1543 1543 1543 1542 1542
1505 1508 1510 1513 1515 1518 1520 1522 1524 1526 1527 1529 1530 1531 1532 1534 1534 1535 1536 1537 1538 1539 1539 1540 1541 1541 1542 1542 1542 1543 1543 1543 1544 1544 1544 1544 1543 1543 1543 1542 1542 1541 1541
1503 1507 1509 1512 1514 1517 1519 1521 1523 1525 1527 1528 1529 1531 1532 1533 1534 1535 1536 1537 1538 1538 1539 1540 1540 1541 1541 1542 1542 1542 1543 1543 1543 1543 1543 1543 1543 1542 1542 1541 1541 1540 1540
1502 1505 1508 1511 1514 1516 1518 1520 1522 1524 1526 1527 1529 1530 1531 1533 1534 1534 1535 1536 1537 1538 1539 1539 1540 1540 1541 1541 1541 1542 1542 1542 1542 1542 1542 1542 1542 1542 1541 1540 1540 1539 1538
1502 1505 1507 1510 1513 1515 1517 1519 1521 1523 1525 1526 1528 1529 1531 1532 1533 1534 1535 1536 1536 1537 1538 1539 1539 1540 1540 1540 1541 1541 1541 1541 1541 1541 1541 1541 1541 1540 1540 1539 1538 1538 1537
1500 1503 1506 1509 1511 1514 1516 1518 1520 1522 1524 1525 1527 1528 1530 1531 1532 1533 1534 1535 1535 1536 1537 1537 1538 1539 1539 1539 1539 1540 1540 1540 1540 1540 1540 1539 1539 1539 1538 1538 1537 1536 1535
1499 1502 1504 1507 1510 1512 1514 1517 1519 1520 1522 1524 1525 1527 1528 1530 1531 1532 1533 1534 1534 1535 1536 1536 1537 1537 1538 1538 1538 1538 1538 1538 1538 1538 1538 1538 1538 1537 1536 1535 1535 1534 1533
1497 1500 1502 1505 1508 1510 1513 1515 1517 1519 1521 1522 1524 1525 1527 1528 1529 1530 1531 1532 1533 1534 1534 1535 1535 1536 1536 1537 1537 1537 1537 1537 1537 1537 1536 1536 1536 1535 1534 1533 1532 1532 1531
1495 1498 1500 1503 1505 1508 1510 1513 1515 1516 1518 1520 1522 1523 1525 1526 1527 1529 1530 1531 1531 1532 1533 1533 1534 1534 1534 1535 1535 1535 1535 1535 1535 1535 1535 1534 1534 1533 1532 1531 1530 1529 1528
1492 1495 1498 1500 1503 1505 1508 1510 1512 1514 1516 1518 1520 1521 1523 1524 1525 1527 1528 1529 1530 1530 1531 1531 1532 1532 1532 1532 1533 1533 1533 1533 1533 1533 1532 1532 1532 1531 1530 1529 1528 1527 1526
1489 1492 1495 1497 1500 1502 1505 1507 1509 1511 1513 1515 1517 1519 1520 1522 1523 1524 1525 1526 1527 1528 1529 1529 1530 1530 1530 1530 1530 1530 1530 1530 1530 1530 1530 1530 1529 1529 1528 1527 1526 1524 1523
1486 1489 1491 1494 1496 1499 1501 1503 1506 1508 1510 1512 1514 1516 1518 1519 1520 1522 1523 1524 1525 1525 1526 1527 1527 1527 1528 1528 1527 1527 1527 1527 1527 1527 1527 1527 1527 1526 1525 1524 1523 1521 1520
1482 1485 1488 1490 1493 1496 1498 1500 1503 1505 1507 1509 1511 1513 1515 1516 1518 1519 1520 1521 1522 1523 1523 1524 1524 1525 1525 1526 1525 1525 1524 1525 1524 1524 1524 1524 1523 1523 1522 1520 1519 1518 1516
1478 1481 1484 1487 1490 1492 1495 1497 1500 1502 1504 1506 1508 1510 1511 1513 1514 1515 1517 1518 1519 1520 1520 1521 1521 1522 1522 1523 1523 1524 1523 1521 1520 1520 1520 1520 1520 1519 1518 1517 1516 1514 1513
1474 1478 1481 1483 1486 1489 1491 1494 1496 1498 1500 1502 1504 1506 1508 1510 1511 1512 1514 1515 1516 1516 1517 1518 1519 1519 1519 1520 1520 1521 1521 1520 1519 1517 1517 1516 1516 1515 1514 1513 1512 1510 1509
1471 1474 1477 1480 1483 1485 1488 1490 1493 1495 1497 1500 1501 1503 1505 1506 1508 1509 1510 1511 1512 1513 1514 1515 1515 1516 1516 1517 1517 1517 1517 1517 1516 1515 1512 1512 1511 1511 1510 1509 1507 1506 1504
1467 1470 1473 1476 1479 1482 1484 1487 1489 1492 1494 1496 1498 1500 1501 1503 1504 1506 1507 1508 1509 1509 1510 1511 1512 1512 1513 1513 1513 1513 1513 1513 1512 1512 1509 1507 1506 1506 1505 1504 1503 1501 1499